SIS517 KCMH-KBCT

Flight info

Callsign SIS517
Flight time 1h 50m
Altitude 38000
Route DCT POBSE DCT OHIOS DCT DOOGE/N0513F390 DCT KELLN DCT VIYAP DCT KENLL CPTAN3
Aircraft C750/M-SBDE3FGHRWXY/S

Departure

Time 2026-05-04 10:39
Airport John Glenn Columbus International Airport (KCMH)

Arrival

Time 2026-05-04 12:29
Airport Boca Raton Airport (KBCT)
Time Latitude Longitude Altitude Speed Heading
2026-05-04 10:17 39.99070 -82.89317 821 ft 0 kts 208°
2026-05-04 10:26 39.99069 -82.89317 821 ft 1 kts 208°
2026-05-04 10:27 39.99063 -82.89316 821 ft 1 kts 160°
2026-05-04 10:27 39.99062 -82.89311 821 ft 1 kts 117°
2026-05-04 10:27 39.99061 -82.89301 821 ft 0 kts 99°
2026-05-04 10:28 39.99061 -82.89297 821 ft 2 kts 94°
2026-05-04 10:28 39.99060 -82.89281 821 ft 2 kts 94°
2026-05-04 10:28 39.99059 -82.89264 821 ft 1 kts 94°
2026-05-04 10:29 39.99060 -82.89250 821 ft 1 kts 83°
2026-05-04 10:29 39.99063 -82.89241 821 ft 2 kts 59°
2026-05-04 10:29 39.99074 -82.89232 821 ft 1 kts 17°
2026-05-04 10:29 39.99083 -82.89231 821 ft 1 kts
2026-05-04 10:30 39.99085 -82.89231 821 ft 0 kts
2026-05-04 10:30 39.99094 -82.89230 821 ft 1 kts
2026-05-04 10:31 39.99104 -82.89229 821 ft 3 kts
2026-05-04 10:31 39.99133 -82.89227 821 ft 4 kts
2026-05-04 10:32 39.99145 -82.88965 821 ft 10 kts 94°
2026-05-04 10:33 39.99138 -82.88843 822 ft 16 kts 94°
2026-05-04 10:33 39.99131 -82.88703 822 ft 15 kts 94°
2026-05-04 10:33 39.99123 -82.88574 822 ft 13 kts 94°
2026-05-04 10:33 39.99117 -82.88459 822 ft 12 kts 94°
2026-05-04 10:34 39.99111 -82.88357 822 ft 11 kts 94°
2026-05-04 10:34 39.99105 -82.88261 822 ft 11 kts 94°
2026-05-04 10:34 39.99099 -82.88145 821 ft 14 kts 94°
2026-05-04 10:34 39.99092 -82.88010 821 ft 16 kts 94°
2026-05-04 10:35 39.99058 -82.87882 821 ft 14 kts 116°
2026-05-04 10:35 39.99022 -82.87767 821 ft 13 kts 102°
2026-05-04 10:35 39.99014 -82.87659 821 ft 11 kts 94°
2026-05-04 10:35 39.99009 -82.87562 821 ft 10 kts 94°
2026-05-04 10:36 39.99004 -82.87462 821 ft 12 kts 94°
2026-05-04 10:36 39.99017 -82.87356 821 ft 11 kts 40°
2026-05-04 10:36 39.99092 -82.87339 821 ft 11 kts
2026-05-04 10:36 39.99155 -82.87357 821 ft 8 kts 317°
2026-05-04 10:37 39.99168 -82.87415 820 ft 1 kts 272°
2026-05-04 10:37 39.99168 -82.87424 820 ft 1 kts 272°
2026-05-04 10:37 39.99168 -82.87431 820 ft 4 kts 272°
2026-05-04 10:37 39.99193 -82.87841 820 ft 99 kts 274°
2026-05-04 10:39 40.00098 -82.97249 3071 ft 235 kts 274°
2026-05-04 10:39 40.00297 -82.99380 3920 ft 237 kts 274°
2026-05-04 10:39 40.00481 -83.01542 4869 ft 244 kts 274°
2026-05-04 10:40 40.00661 -83.03772 5764 ft 249 kts 274°
2026-05-04 10:40 40.00809 -83.06021 6721 ft 250 kts 270°
2026-05-04 10:40 40.00246 -83.08168 7563 ft 257 kts 238°
2026-05-04 10:40 39.99001 -83.09854 8588 ft 265 kts 220°
2026-05-04 10:41 39.97306 -83.10851 9467 ft 280 kts 198°
2026-05-04 10:41 39.95306 -83.10880 10207 ft 299 kts 174°
2026-05-04 10:41 39.93302 -83.09728 10343 ft 335 kts 149°
2026-05-04 10:41 39.91386 -83.07773 10430 ft 363 kts 142°
2026-05-04 10:42 39.89435 -83.05596 10956 ft 370 kts 142°
2026-05-04 10:42 39.87402 -83.03519 11643 ft 373 kts 146°
2026-05-04 10:42 39.85289 -83.01504 12257 ft 378 kts 146°
2026-05-04 10:42 39.83176 -82.99410 12901 ft 383 kts 144°
2026-05-04 10:43 39.81070 -82.97241 13510 ft 388 kts 144°
2026-05-04 10:44 39.65556 -82.81740 17600 ft 416 kts 145°
2026-05-04 10:45 39.63251 -82.79441 18214 ft 420 kts 145°
2026-05-04 10:45 39.60917 -82.77113 18775 ft 424 kts 145°
2026-05-04 10:45 39.58562 -82.74772 19300 ft 429 kts 145°
2026-05-04 10:45 39.56186 -82.72411 19873 ft 433 kts 145°
2026-05-04 10:46 39.53811 -82.70053 20432 ft 437 kts 146°
2026-05-04 10:46 39.51382 -82.67642 21005 ft 442 kts 146°
2026-05-04 10:46 39.48870 -82.65325 21507 ft 443 kts 153°
2026-05-04 10:46 39.46100 -82.63593 22094 ft 440 kts 163°
2026-05-04 10:47 39.43173 -82.62483 22663 ft 438 kts 174°
2026-05-04 10:47 39.40159 -82.62019 23234 ft 434 kts 184°
2026-05-04 10:47 39.37156 -82.62170 23760 ft 431 kts 191°
2026-05-04 10:47 39.34152 -82.62490 24225 ft 434 kts 191°
2026-05-04 10:49 39.13639 -82.64557 27405 ft 455 kts 191°
2026-05-04 10:49 39.10429 -82.64883 27869 ft 459 kts 192°
2026-05-04 10:50 39.07229 -82.65207 28342 ft 463 kts 192°
2026-05-04 10:51 38.84236 -82.67514 31737 ft 476 kts 192°
2026-05-04 10:52 38.80909 -82.67720 32287 ft 482 kts 187°
2026-05-04 10:52 38.77548 -82.67543 32846 ft 483 kts 185°
2026-05-04 10:52 38.74200 -82.67383 33455 ft 480 kts 186°
2026-05-04 10:54 38.50895 -82.66335 37018 ft 478 kts 185°
2026-05-04 10:54 38.47576 -82.66180 37565 ft 477 kts 185°
2026-05-04 10:56 38.23039 -82.65068 38065 ft 532 kts 184°
2026-05-04 10:56 38.19336 -82.64895 38068 ft 534 kts 184°
2026-05-04 10:57 38.11902 -82.64557 38074 ft 535 kts 184°
2026-05-04 10:57 38.04497 -82.64223 38083 ft 536 kts 184°
2026-05-04 10:58 37.97050 -82.63885 38086 ft 535 kts 184°
2026-05-04 10:58 37.89605 -82.63550 38084 ft 536 kts 184°
2026-05-04 10:59 37.82152 -82.63215 38082 ft 536 kts 184°
2026-05-04 10:59 37.74697 -82.62880 38082 ft 536 kts 184°
2026-05-04 11:00 37.67246 -82.62546 38079 ft 536 kts 184°
2026-05-04 11:02 37.37430 -82.61217 38104 ft 538 kts 184°
2026-05-04 11:05 36.81343 -82.58713 38131 ft 540 kts 183°
2026-05-04 11:06 36.73835 -82.57377 38143 ft 544 kts 178°
2026-05-04 11:06 36.66373 -82.55974 38146 ft 542 kts 179°
2026-05-04 11:10 36.14378 -82.46339 38155 ft 540 kts 179°
2026-05-04 11:12 35.84523 -82.40858 38159 ft 545 kts 178°
2026-05-04 11:12 35.77004 -82.39488 38166 ft 545 kts 178°
2026-05-04 11:13 35.69556 -82.38128 38164 ft 545 kts 178°
2026-05-04 11:13 35.62056 -82.36764 38155 ft 544 kts 178°
2026-05-04 11:14 35.54553 -82.35403 38158 ft 545 kts 178°
2026-05-04 11:16 35.24654 -82.29997 38119 ft 541 kts 178°
2026-05-04 11:16 35.17259 -82.28669 38150 ft 540 kts 178°
2026-05-04 11:17 35.09808 -82.27330 38167 ft 541 kts 178°
2026-05-04 11:19 34.80032 -82.22007 38163 ft 540 kts 178°
2026-05-04 11:19 34.72628 -82.20690 38154 ft 539 kts 178°
2026-05-04 11:20 34.65210 -82.19373 38159 ft 539 kts 178°
2026-05-04 11:20 34.57789 -82.18057 38160 ft 539 kts 178°
2026-05-04 11:22 34.28149 -82.11444 38182 ft 542 kts 175°
2026-05-04 11:23 34.20785 -82.09740 38169 ft 542 kts 175°
2026-05-04 11:25 33.94797 -82.03735 38153 ft 543 kts 175°
2026-05-04 11:25 33.87367 -82.02029 38176 ft 544 kts 175°
2026-05-04 11:27 33.53948 -81.94376 38194 ft 544 kts 175°
2026-05-04 11:28 33.46564 -81.92694 38194 ft 543 kts 175°
2026-05-04 11:28 33.39127 -81.91002 38187 ft 542 kts 175°
2026-05-04 11:29 33.31695 -81.89316 38186 ft 543 kts 175°
2026-05-04 11:29 33.24259 -81.87629 38185 ft 543 kts 175°
2026-05-04 11:33 32.72349 -81.75944 38201 ft 542 kts 175°
2026-05-04 11:33 32.64921 -81.74284 38205 ft 542 kts 175°
2026-05-04 11:34 32.57497 -81.72627 38188 ft 543 kts 175°
2026-05-04 11:34 32.50070 -81.70972 38195 ft 543 kts 175°
2026-05-04 11:35 32.42689 -81.69331 38195 ft 543 kts 175°
2026-05-04 11:35 32.35259 -81.67680 38192 ft 543 kts 175°
2026-05-04 11:36 32.27819 -81.66032 38208 ft 545 kts 175°
2026-05-04 11:36 32.20374 -81.64382 38214 ft 543 kts 175°
2026-05-04 11:37 32.14193 -81.63018 38215 ft 543 kts 175°
2026-05-04 11:37 32.05504 -81.61100 38186 ft 543 kts 175°
2026-05-04 11:38 31.99315 -81.59737 38200 ft 544 kts 176°
2026-05-04 11:38 31.91872 -81.58099 38197 ft 544 kts 176°
2026-05-04 11:39 31.84425 -81.56465 38197 ft 544 kts 176°
2026-05-04 11:41 31.58403 -81.50772 38191 ft 544 kts 176°
2026-05-04 11:41 31.50961 -81.49150 38159 ft 544 kts 176°
2026-05-04 11:42 31.43499 -81.47527 38196 ft 545 kts 176°
2026-05-04 11:42 31.36032 -81.45904 38201 ft 545 kts 176°
2026-05-04 11:43 31.28625 -81.44298 38199 ft 545 kts 176°
2026-05-04 11:43 31.21165 -81.42807 38205 ft 544 kts 178°
2026-05-04 11:44 31.13669 -81.41371 38189 ft 546 kts 178°
2026-05-04 11:44 31.06153 -81.39962 38191 ft 546 kts 178°
2026-05-04 11:45 30.98657 -81.38547 38189 ft 546 kts 178°
2026-05-04 11:45 30.91150 -81.37137 38186 ft 548 kts 178°
2026-05-04 11:46 30.83625 -81.35724 38190 ft 547 kts 178°
2026-05-04 11:46 30.76090 -81.34312 38193 ft 547 kts 178°
2026-05-04 11:47 30.68612 -81.32913 38194 ft 547 kts 178°
2026-05-04 11:47 30.61093 -81.31508 38198 ft 547 kts 178°
2026-05-04 11:48 30.53575 -81.30106 38198 ft 547 kts 178°
2026-05-04 11:48 30.46046 -81.28704 38173 ft 547 kts 178°
2026-05-04 11:49 30.38549 -81.27307 38179 ft 542 kts 178°
2026-05-04 11:49 30.31125 -81.25934 38179 ft 543 kts 178°
2026-05-04 11:50 30.23641 -81.24543 38177 ft 543 kts 178°
2026-05-04 11:50 30.16164 -81.23162 38181 ft 543 kts 178°
2026-05-04 11:51 30.08692 -81.21779 38172 ft 543 kts 179°
2026-05-04 11:51 30.01266 -81.20411 38183 ft 544 kts 179°
2026-05-04 11:52 29.93786 -81.19032 38182 ft 544 kts 179°
2026-05-04 11:52 29.86310 -81.17657 38177 ft 544 kts 179°
2026-05-04 11:53 29.78835 -81.16283 38178 ft 543 kts 179°
2026-05-04 11:53 29.71349 -81.14911 38174 ft 544 kts 179°
2026-05-04 11:55 29.41871 -81.05914 38173 ft 556 kts 168°
2026-05-04 11:56 29.34580 -81.02896 38183 ft 557 kts 167°
2026-05-04 11:56 29.27285 -80.99878 38174 ft 556 kts 168°
2026-05-04 11:57 29.20003 -80.96884 38162 ft 555 kts 168°
2026-05-04 11:57 29.12741 -80.93887 38162 ft 555 kts 168°
2026-05-04 11:58 29.05511 -80.90923 38155 ft 555 kts 168°
2026-05-04 11:58 28.98297 -80.87952 38165 ft 549 kts 168°
2026-05-04 11:59 28.91103 -80.85014 38154 ft 545 kts 168°
2026-05-04 11:59 28.83951 -80.82087 38147 ft 546 kts 168°
2026-05-04 12:00 28.76805 -80.79173 38133 ft 546 kts 168°
2026-05-04 12:00 28.69657 -80.76258 38125 ft 545 kts 168°
2026-05-04 12:01 28.62508 -80.73350 38104 ft 544 kts 168°
2026-05-04 12:01 28.58983 -80.71908 37709 ft 530 kts 168°
2026-05-04 12:02 28.39201 -80.63893 33735 ft 509 kts 168°
2026-05-04 12:03 28.35866 -80.62541 33055 ft 508 kts 168°
2026-05-04 12:03 28.32542 -80.61200 32336 ft 507 kts 168°
2026-05-04 12:03 28.29220 -80.59860 31680 ft 507 kts 168°
2026-05-04 12:03 28.25900 -80.58518 31012 ft 506 kts 168°
2026-05-04 12:04 28.22583 -80.57178 30342 ft 505 kts 168°
2026-05-04 12:04 28.19338 -80.55865 29637 ft 496 kts 167°
2026-05-04 12:04 28.16106 -80.54562 28989 ft 490 kts 167°
2026-05-04 12:04 28.12902 -80.53275 28339 ft 484 kts 167°
2026-05-04 12:05 28.09760 -80.52009 27719 ft 476 kts 167°
2026-05-04 12:05 28.06645 -80.50756 27091 ft 471 kts 167°
2026-05-04 12:05 28.03564 -80.49519 26433 ft 467 kts 167°
2026-05-04 12:05 28.00545 -80.48306 25865 ft 464 kts 167°
2026-05-04 12:06 27.97525 -80.47092 25267 ft 454 kts 167°
2026-05-04 12:06 27.94616 -80.45915 24669 ft 434 kts 167°
2026-05-04 12:06 27.91810 -80.44790 24050 ft 423 kts 167°
2026-05-04 12:06 27.89041 -80.43691 23049 ft 418 kts 167°
2026-05-04 12:07 27.86325 -80.42602 22024 ft 409 kts 167°
2026-05-04 12:07 27.83676 -80.41531 21276 ft 397 kts 167°
2026-05-04 12:07 27.81097 -80.40496 20820 ft 391 kts 168°
2026-05-04 12:07 27.78524 -80.39476 20381 ft 392 kts 168°
2026-05-04 12:08 27.75955 -80.38450 19956 ft 390 kts 167°
2026-05-04 12:08 27.73403 -80.37423 19525 ft 388 kts 167°
2026-05-04 12:08 27.70872 -80.36407 19092 ft 383 kts 168°
2026-05-04 12:08 27.68360 -80.35405 18673 ft 381 kts 168°
2026-05-04 12:09 27.65877 -80.34372 18220 ft 382 kts 165°
2026-05-04 12:09 27.63477 -80.33099 17790 ft 381 kts 162°
2026-05-04 12:09 27.61094 -80.31819 17370 ft 378 kts 162°
2026-05-04 12:09 27.58719 -80.30571 16932 ft 375 kts 162°
2026-05-04 12:10 27.56358 -80.29336 16515 ft 373 kts 161°
2026-05-04 12:10 27.54010 -80.28095 16106 ft 371 kts 161°
2026-05-04 12:10 27.51679 -80.26860 15697 ft 369 kts 161°
2026-05-04 12:10 27.49365 -80.25641 15291 ft 366 kts 161°
2026-05-04 12:11 27.47058 -80.24428 14883 ft 364 kts 160°
2026-05-04 12:11 27.44804 -80.23240 14497 ft 362 kts 160°
2026-05-04 12:11 27.42532 -80.22043 14100 ft 359 kts 160°
2026-05-04 12:11 27.40274 -80.20855 13668 ft 357 kts 159°
2026-05-04 12:12 27.38032 -80.19676 13257 ft 355 kts 159°
2026-05-04 12:12 27.35809 -80.18506 12863 ft 352 kts 159°
2026-05-04 12:12 27.33592 -80.17341 12472 ft 350 kts 159°
2026-05-04 12:12 27.31386 -80.16183 12086 ft 349 kts 159°
2026-05-04 12:13 27.29231 -80.15047 11701 ft 332 kts 159°
2026-05-04 12:14 27.15524 -80.08269 9311 ft 300 kts 161°
2026-05-04 12:15 27.13599 -80.07386 8960 ft 295 kts 166°
2026-05-04 12:15 27.11591 -80.06978 8635 ft 292 kts 176°
2026-05-04 12:15 27.09571 -80.06682 8331 ft 293 kts 176°
2026-05-04 12:15 27.07577 -80.06361 8015 ft 293 kts 175°
2026-05-04 12:16 27.05542 -80.06012 7620 ft 296 kts 174°
2026-05-04 12:16 27.03521 -80.05672 7281 ft 292 kts 174°
2026-05-04 12:16 27.01525 -80.05346 6953 ft 288 kts 173°
2026-05-04 12:16 26.99536 -80.05020 6633 ft 290 kts 172°
2026-05-04 12:17 26.97543 -80.04691 6312 ft 290 kts 172°
2026-05-04 12:17 26.95541 -80.04359 5987 ft 289 kts 172°
2026-05-04 12:17 26.93551 -80.04031 5662 ft 288 kts 172°
2026-05-04 12:17 26.91584 -80.03708 5327 ft 284 kts 172°
2026-05-04 12:18 26.89612 -80.03646 4949 ft 285 kts 192°
2026-05-04 12:18 26.87859 -80.04576 4925 ft 280 kts 217°
2026-05-04 12:18 26.86306 -80.05883 5012 ft 278 kts 220°
2026-05-04 12:18 26.84790 -80.07179 4998 ft 282 kts 216°
2026-05-04 12:19 26.82971 -80.08010 5005 ft 289 kts 200°
2026-05-04 12:19 26.81082 -80.08637 5006 ft 278 kts 199°
2026-05-04 12:19 26.79230 -80.09277 5002 ft 278 kts 200°
2026-05-04 12:19 26.77346 -80.09815 4956 ft 285 kts 187°
2026-05-04 12:20 26.75350 -80.09720 4990 ft 290 kts 178°
2026-05-04 12:20 26.73361 -80.09560 5003 ft 288 kts 178°
2026-05-04 12:20 26.71394 -80.09431 5002 ft 280 kts 178°
2026-05-04 12:20 26.69421 -80.09310 5003 ft 284 kts 178°
2026-05-04 12:21 26.67439 -80.09181 5006 ft 286 kts 178°
2026-05-04 12:21 26.65465 -80.09046 5008 ft 281 kts 179°
2026-05-04 12:21 26.63495 -80.08915 5008 ft 281 kts 178°
2026-05-04 12:21 26.61541 -80.08834 4990 ft 285 kts 184°
2026-05-04 12:22 26.59687 -80.09442 5003 ft 274 kts 207°
2026-05-04 12:22 26.57939 -80.10319 5006 ft 274 kts 207°
2026-05-04 12:22 26.56222 -80.11149 5011 ft 276 kts 204°
2026-05-04 12:22 26.54407 -80.11990 5010 ft 280 kts 206°
2026-05-04 12:23 26.52627 -80.12803 4991 ft 275 kts 206°
2026-05-04 12:23 26.50866 -80.13623 4990 ft 273 kts 205°
2026-05-04 12:23 26.49117 -80.14441 4993 ft 272 kts 205°
2026-05-04 12:23 26.47362 -80.15258 4995 ft 275 kts 205°
2026-05-04 12:24 26.46196 -80.15799 4999 ft 274 kts 205°
2026-05-04 12:24 26.44435 -80.16616 5005 ft 275 kts 205°
2026-05-04 12:24 26.42711 -80.17416 4994 ft 257 kts 205°
2026-05-04 12:24 26.41102 -80.18162 4619 ft 242 kts 205°
2026-05-04 12:25 26.39577 -80.18872 4224 ft 237 kts 205°
2026-05-04 12:25 26.37577 -80.19802 3712 ft 233 kts 204°
2026-05-04 12:25 26.36081 -80.20496 3337 ft 233 kts 204°
2026-05-04 12:25 26.34585 -80.21191 2961 ft 232 kts 204°
2026-05-04 12:26 26.33036 -80.21608 2479 ft 231 kts 177°
2026-05-04 12:26 26.32049 -80.21271 2135 ft 210 kts 148°
2026-05-04 12:26 26.31248 -80.20113 1531 ft 184 kts 103°
2026-05-04 12:26 26.31139 -80.18807 1461 ft 161 kts 79°
2026-05-04 12:27 26.31479 -80.17651 1485 ft 154 kts 56°
2026-05-04 12:27 26.32205 -80.16757 1379 ft 157 kts 38°
2026-05-04 12:27 26.33037 -80.15966 1197 ft 159 kts 38°
2026-05-04 12:27 26.33839 -80.15122 984 ft 154 kts 40°
2026-05-04 12:28 26.34520 -80.14376 787 ft 121 kts 40°
2026-05-04 12:28 26.35087 -80.13761 608 ft 109 kts 43°
2026-05-04 12:28 26.35594 -80.13177 457 ft 108 kts 41°
2026-05-04 12:28 26.36170 -80.12573 392 ft 109 kts 38°
2026-05-04 12:29 26.36712 -80.11999 237 ft 107 kts 40°
2026-05-04 12:29 26.37252 -80.11420 97 ft 108 kts 41°
2026-05-04 12:29 26.37757 -80.10874 21 ft 91 kts 41°
2026-05-04 12:29 26.38037 -80.10566 24 ft 26 kts 44°
2026-05-04 12:30 26.38103 -80.10521 23 ft 4 kts 332°
2026-05-04 12:30 26.38121 -80.10542 23 ft 4 kts 312°
2026-05-04 12:30 26.38126 -80.10569 23 ft 7 kts 251°
2026-05-04 12:30 26.38090 -80.10610 23 ft 7 kts 223°
2026-05-04 12:31 26.38058 -80.10646 23 ft 8 kts 225°
2026-05-04 12:31 26.38019 -80.10688 22 ft 8 kts 224°
2026-05-04 12:31 26.37980 -80.10731 22 ft 8 kts 224°
2026-05-04 12:31 26.37940 -80.10774 22 ft 8 kts 224°
2026-05-04 12:32 26.37902 -80.10815 22 ft 8 kts 224°
2026-05-04 12:32 26.37826 -80.10898 21 ft 8 kts 224°
2026-05-04 12:32 26.37787 -80.10940 22 ft 8 kts 224°
2026-05-04 12:33 26.37772 -80.10971 21 ft 2 kts 283°
2026-05-04 12:33 26.37782 -80.11000 20 ft 5 kts 274°
2026-05-04 12:33 26.37763 -80.11029 22 ft 4 kts 223°
2026-05-04 12:33 26.37745 -80.11048 22 ft 3 kts 223°
2026-05-04 12:34 26.37735 -80.11058 21 ft 2 kts 223°
2026-05-04 12:34 26.37718 -80.11079 22 ft 3 kts 248°
2026-05-04 12:34 26.37731 -80.11098 21 ft 4 kts 327°
2026-05-04 12:34 26.37747 -80.11093 21 ft 2 kts 47°
2026-05-04 12:35 26.37756 -80.11082 21 ft 0 kts 46°